Colby, KS

3:00 PM CST on November 21, 2019 (GMT -0600)
Shaltz

Weather History for KCBK - September, 2019

Change the Weather History Date:

Friday, September 27, 2019

  Actual Average (KGLD) Record (KGLD)
Temperature  
Mean Temperature 63 °F 59 °F  
Max Temperature 73 °F 74 °F 95 °F (1953)
Min Temperature 53 °F 45 °F 24 °F (1908)
Degree Days  
Heating Degree Days 2 7  
Month to date heating degree days 90  
Since 1 July heating degree days 102  
Cooling Degree Days 0 1  
Month to date cooling degree days 98  
Year to date cooling degree days 931  
Growing Degree Days 13 (Base 50)    
Moisture  
Dew Point 45 °F    
Average Humidity 60    
Maximum Humidity 100    
Minimum Humidity 27    
Precipitation  
Precipitation 0.00 in 0.04 in 0.76 in (1973)
Month to date precipitation 1.10  
Year to date precipitation 17.00  
Snow  
Snow 0.00 in 0.00 in - ()
Month to date snowfall 0.3  
Since 1 July snowfall 0.3  
Since 1 September snowfall 0.3  
Snow Depth -    
Sea Level Pressure  
Sea Level Pressure 29.77 in    
Wind  
Wind Speed 11 mph (NNE)    
Max Wind Speed 23 mph    
Max Gust Speed 30 mph    
Visibility 10 miles    
Events      
T = Trace of Precipitation, MM = Missing Value Source: NWS Daily Summary

Daily Weather History Graph

Daily Weather History Graph

Search for Another Location

Airport or City:

Astronomy

Sep. 27, 2019 Rise Set
Actual Time 7:36 AM CDT 7:33 PM CDT
Civil Twilight 7:09 AM CDT 8:00 PM CDT
Nautical Twilight 6:38 AM CDT 8:31 PM CDT
Astronomical Twilight 6:06 AM CDT 9:02 PM CDT
Moon 6:00 AM CDT (9/27) 7:24 PM CDT (9/27)
Length of Visible Light 12h 50m
Length of Day
11h 57m
Waning Crescent, 2% of the Moon is Illuminated
Sep 27
Waning Crescent
Sep 28
New
Oct 5
First Quarter
Oct 13
Full
Oct 21
Last Quarter

Hourly Weather History & Observations

Time (CDT) Temp. Dew Point Humidity Pressure Visibility Wind Dir Wind Speed Gust Speed Precip Events Conditions
12:15 AM 62.6 °F 55.4 °F 77% 29.68 in 10.0 mi South 12.7 mph 16.1 mph N/A   Clear
12:35 AM 62.6 °F 55.4 °F 77% 29.67 in 10.0 mi South 10.4 mph - N/A   Clear
12:55 AM 60.8 °F 55.4 °F 82% 29.66 in 10.0 mi South 6.9 mph - N/A   Clear
1:15 AM 60.8 °F 57.2 °F 88% 29.65 in 10.0 mi South 9.2 mph - N/A   Clear
1:35 AM 60.8 °F 57.2 °F 88% 29.64 in 10.0 mi South 9.2 mph - N/A   Clear
1:55 AM 60.8 °F 57.2 °F 88% 29.63 in 10.0 mi South 8.1 mph - N/A   Clear
2:15 AM 60.8 °F 57.2 °F 88% 29.63 in 10.0 mi South 9.2 mph - N/A   Clear
2:35 AM 60.8 °F 57.2 °F 88% 29.63 in 10.0 mi SW 5.8 mph - N/A   Clear
2:55 AM 60.8 °F 59.0 °F 94% 29.62 in 10.0 mi South 5.8 mph - N/A   Clear
3:35 AM 57.2 °F 57.2 °F 100% 29.61 in 10.0 mi SW 4.6 mph - N/A   Clear
3:55 AM 55.4 °F 55.4 °F 100% 29.60 in 7.0 mi SW 5.8 mph - N/A   Clear
4:15 AM 55.4 °F 55.4 °F 100% 29.60 in 7.0 mi SW 4.6 mph - N/A   Clear
4:35 AM 53.6 °F 53.6 °F 100% 29.60 in 5.0 mi West 5.8 mph - N/A   Clear
4:55 AM 53.6 °F 53.6 °F 100% 29.62 in 7.0 mi West 6.9 mph - N/A   Clear
5:15 AM 53.6 °F 53.6 °F 100% 29.62 in 10.0 mi NW 10.4 mph - N/A   Clear
5:35 AM 55.4 °F 55.4 °F 100% 29.63 in 10.0 mi NNW 17.3 mph 21.9 mph N/A   Clear
5:55 AM 55.4 °F 55.4 °F 100% 29.64 in 10.0 mi NNW 15.0 mph - N/A   Clear
6:15 AM 55.4 °F 55.4 °F 100% 29.66 in 10.0 mi NNW 18.4 mph 24.2 mph N/A   Clear
6:35 AM 55.4 °F 55.4 °F 100% 29.68 in 10.0 mi North 18.4 mph 27.6 mph N/A   Scattered Clouds
6:55 AM 55.4 °F 51.8 °F 88% 29.69 in 10.0 mi North 23.0 mph 29.9 mph N/A   Scattered Clouds
7:15 AM 53.6 °F 50.0 °F 88% 29.71 in 10.0 mi North 18.4 mph 26.5 mph N/A   Clear
7:35 AM 53.6 °F 46.4 °F 77% 29.72 in 10.0 mi North 19.6 mph 27.6 mph N/A   Clear
7:55 AM 53.6 °F 44.6 °F 72% 29.75 in 10.0 mi North 13.8 mph 21.9 mph N/A   Clear
8:15 AM 53.6 °F 44.6 °F 72% 29.77 in 10.0 mi North 11.5 mph 17.3 mph N/A   Clear
8:35 AM 55.4 °F 42.8 °F 63% 29.77 in 10.0 mi North 11.5 mph - N/A   Clear
8:55 AM 55.4 °F 42.8 °F 63% 29.79 in 10.0 mi North 9.2 mph 16.1 mph N/A   Clear
9:15 AM 59.0 °F 42.8 °F 55% 29.79 in 10.0 mi North 11.5 mph - N/A   Clear
9:35 AM 60.8 °F 42.8 °F 52% 29.79 in 10.0 mi NNE 16.1 mph 20.7 mph N/A   Clear
9:55 AM 59.0 °F 41.0 °F 51% 29.80 in 10.0 mi NNE 12.7 mph 18.4 mph N/A   Clear
10:15 AM 62.6 °F 41.0 °F 45% 29.81 in 10.0 mi NNE 16.1 mph 20.7 mph N/A   Clear
10:35 AM 62.6 °F 39.2 °F 42% 29.81 in 10.0 mi NE 17.3 mph - N/A   Clear
10:55 AM 62.6 °F 37.4 °F 39% 29.81 in 10.0 mi NE 16.1 mph 24.2 mph N/A   Clear
11:15 AM 64.4 °F 37.4 °F 37% 29.82 in 10.0 mi NNE 15.0 mph 18.4 mph N/A   Clear
11:35 AM 66.2 °F 37.4 °F 35% 29.82 in 10.0 mi NNE 12.7 mph 20.7 mph N/A   Clear
11:55 AM 68.0 °F 37.4 °F 33% 29.82 in 10.0 mi NNE 13.8 mph 20.7 mph N/A   Clear
12:15 PM 69.8 °F 37.4 °F 31% 29.82 in 10.0 mi NNE 12.7 mph - N/A   Clear
12:35 PM 69.8 °F 37.4 °F 31% 29.82 in 10.0 mi NNE 15.0 mph 20.7 mph N/A   Clear
12:55 PM 71.6 °F 37.4 °F 29% 29.82 in 10.0 mi NNE 11.5 mph 19.6 mph N/A   Clear
1:35 PM 71.6 °F 37.4 °F 29% 29.81 in 10.0 mi NNE 12.7 mph 18.4 mph N/A   Clear
1:55 PM 73.4 °F 37.4 °F 27% 29.80 in 10.0 mi NE 11.5 mph 17.3 mph N/A   Clear
2:15 PM 73.4 °F 37.4 °F 27% 29.80 in 10.0 mi NE 11.5 mph - N/A   Clear
2:35 PM 73.4 °F 37.4 °F 27% 29.80 in 10.0 mi NNE 12.7 mph 17.3 mph N/A   Clear
2:55 PM 73.4 °F 37.4 °F 27% 29.79 in 10.0 mi NE 10.4 mph - N/A   Clear
3:15 PM 73.4 °F 37.4 °F 27% 29.79 in 10.0 mi NE 10.4 mph 17.3 mph N/A   Clear
3:35 PM 73.4 °F 37.4 °F 27% 29.79 in 10.0 mi ENE 13.8 mph - N/A   Clear
3:55 PM 73.4 °F 37.4 °F 27% 29.79 in 10.0 mi NE 10.4 mph - N/A   Clear
4:15 PM 73.4 °F 37.4 °F 27% 29.79 in 10.0 mi ENE 9.2 mph - N/A   Clear
4:35 PM 73.4 °F 37.4 °F 27% 29.79 in 10.0 mi NE 8.1 mph 16.1 mph N/A   Clear
4:55 PM 73.4 °F 39.2 °F 29% 29.78 in 10.0 mi NNE 13.8 mph 19.6 mph N/A   Clear
5:15 PM 73.4 °F 37.4 °F 27% 29.79 in 10.0 mi NNE 12.7 mph - N/A   Clear
5:35 PM 73.4 °F 39.2 °F 29% 29.79 in 10.0 mi NE 12.7 mph 19.6 mph N/A   Clear
5:55 PM 71.6 °F 39.2 °F 31% 29.79 in 10.0 mi NE 15.0 mph - N/A   Clear
6:15 PM 71.6 °F 39.2 °F 31% 29.80 in 10.0 mi ENE 12.7 mph - N/A   Clear
6:35 PM 69.8 °F 39.2 °F 33% 29.80 in 10.0 mi ENE 11.5 mph 17.3 mph N/A   Clear
6:55 PM 68.0 °F 41.0 °F 37% 29.81 in 10.0 mi ENE 10.4 mph - N/A   Clear
7:15 PM 64.4 °F 42.8 °F 45% 29.81 in 10.0 mi ENE 10.4 mph - N/A   Clear
7:35 PM 62.6 °F 42.8 °F 48% 29.82 in 10.0 mi ENE 9.2 mph - N/A   Clear
7:55 PM 60.8 °F 42.8 °F 52% 29.84 in 10.0 mi NE 10.4 mph - N/A   Clear
8:15 PM 60.8 °F 42.8 °F 52% 29.85 in 10.0 mi NE 9.2 mph - N/A   Clear
8:35 PM 60.8 °F 42.8 °F 52% 29.86 in 10.0 mi NE 12.7 mph - N/A   Clear
8:55 PM 59.0 °F 42.8 °F 55% 29.88 in 10.0 mi NE 10.4 mph - N/A   Clear
9:15 PM 55.4 °F 42.8 °F 63% 29.89 in 10.0 mi NNE 9.2 mph - N/A   Clear
9:35 PM 55.4 °F 42.8 °F 63% 29.90 in 10.0 mi NNE 8.1 mph - N/A   Clear
9:55 PM 53.6 °F 42.8 °F 67% 29.91 in 10.0 mi NNE 12.7 mph - N/A   Clear
10:15 PM 55.4 °F 44.6 °F 67% 29.92 in 10.0 mi NNE 12.7 mph - N/A   Clear
10:35 PM 53.6 °F 44.6 °F 72% 29.93 in 10.0 mi NNE 12.7 mph - N/A   Clear
10:55 PM 53.6 °F 44.6 °F 72% 29.95 in 10.0 mi NNE 16.1 mph - N/A   Clear
11:15 PM 53.6 °F 42.8 °F 67% 29.95 in 10.0 mi NNE 15.0 mph 21.9 mph N/A   Clear
11:35 PM 53.6 °F 42.8 °F 67% 29.97 in 10.0 mi NE 18.4 mph - N/A   Clear
11:55 PM 53.6 °F 42.8 °F 67% 29.98 in 10.0 mi NE 13.8 mph - N/A   Clear